User: anonymous   Login
Location: U-46 Planetarium
(42.0300°N, 88.2740°W)
Time: 12:11:14
(UTC-06:00)
Language:

Cosmos 1515 - Orbit

View from above orbital plane
View from above orbital plane
View from above satellite
View from above satellite

Ground track
Ground track

The orbit data is extracted from the following two-line orbital elements,

1 14551U 83122A   19020.90556637 +.00000619 +00000-0 +29047-4 0  9997
2 14551 082.5009 317.9622 0008875 073.8084 354.5801 15.17741922657935
Epoch (UTC): 20 January 2019 21:44:00
Eccentricity: 0.0008875
inclination: 82.5009°
perigee height: 506 km
apogee height: 519 km
right ascension of ascending node: 317.9622°
argument of perigee: 73.8084°
revolutions per day: 15.17741922
mean anomaly at epoch: 354.5801°
orbit number at epoch: 65793

The dashed part of the orbit path shows where the satellite is in the earth's shadow,  

DLR